EHI
0 0 0 0 0 0 0 0 0 0 0 0 0 0 0 0 0 0 1 0 0 0 0 0 0 0 0 0 0 0 0 0 0 0 0 0 0 0 0 0 0 0 0
0 0 0 0 0 0 0 0 0 0 0 0 0 0 0 0 0 1 1 1 0 0 0 0 0 0 0 0 0 0 0 0 0 0 0 0 0 0 0 0 0 0 0
0 0 0 0 0 0 0 0 0 0 0 0 0 0 0 0 0 1 1 1 0 0 0 0 0 0 0 0 0 0 0 0 0 0 0 0 0 0 0 0 0 0 0
0 0 0 0 0 0 0 0 0 0 0 0 0 0 0 0 0 0 0 0 0 0 0 0 0 0 0 0 0 0 0 0 0 0 0 0 0 0 0 0 0 0 0
0 0 0 0 0 0 0 0 0 0 0 0 0 0 0 0 0 0 0 0 0 0 0 0 0 0 0 0 0 0 0 0 0 0 0 0 0 0 0 0 0 0 0
0 0 0 0 0 0 0 0 0 0 0 0 0 0 0 0 0 0 0 0 0 0 0 0 0 0 0 0 0 0 0 0 0 0 0 0 0 0 0 0 0 0 0
0 0 0 0 0 0 0 0 0 0 0 0 0 0 0 0 0 0 0 0 0 0 0 0 0 0 0 0 0 0 0 0 0 0 0 0 0 0 0 0 0 0 0
0 0 0 0 0 0 0 0 0 0 0 0 0 0 0 0 0 0 0 0 1 1 0 0 0 0 0 0 0 0 0 0 0 0 0 0 0 0 0 0 0 0 0
0 0 0 0 0 0 0 0 0 0 0 0 0 0 0 0 0 0 1 1 1 1 0 0 0 0 0 0 0 0 0 0 0 0 0 0 0 0 0 0 0 0 0
0 0 0 0 0 0 0 0 0 0 0 0 0 0 0 0 0 0 0 0 1 1 0 0 0 0 0 0 0 0 0 0 0 0 0 0 0 0 0 0 0 0 0
0 0 0 0 0 0 0 0 0 0 0 0 0 0 0 0 0 0 0 0 0 0 0 0 0 0 0 0 0 0 0 0 0 0 0 0 0 0 0 0 0 0 0
0 0 0 0 0 0 0 0 0 0 0 0 0 0 0 0 0 0 0 0 0 0 1 0 0 0 0 0 0 0 0 0 0 0 0 0 0 0 0 0 0 0 0
0 0 0 0 0 0 0 0 0 0 0 0 0 0 0 0 0 0 0 0 0 0 0 0 0 0 0 0 0 0 0 0 0 0 0 1 1 0 0 0 0 0 0
0 0 0 0 0 0 0 0 0 0 0 0 0 0 0 0 0 0 0 0 0 0 0 0 0 0 0 0 0 0 0 0 0 0 0 1 1 1 0 0 0 0 0
0 0 0 0 0 0 0 0 0 0 0 0 0 0 0 0 0 0 0 0 0 0 0 0 0 0 0 0 0 0 0 0 0 0 0 0 0 1 1 0 0 0 0
0 0 0 0 0 0 0 0 0 0 0 0 0 0 0 0 0 0 0 0 0 0 0 0 0 0 0 0 0 0 0 0 0 0 0 0 0 0 0 0 0 0 0
0 0 0 0 0 0 0 0 0 0 0 0 0 0 0 0 0 0 0 0 0 0 0 0 0 0 0 0 0 0 0 0 0 0 0 0 0 0 0 0 0 0 0
0 0 0 0 0 0 0 0 0 0 0 0 0 0 0 0 0 0 0 0 0 0 0 0 0 0 0 0 0 0 0 0 0 0 0 0 0 0 0 0 0 0 0
0 0 0 0 0 0 0 0 0 0 0 0 1 1 1 0 0 0 0 0 0 0 0 0 0 0 0 0 0 0 0 0 0 0 0 0 0 0 0 0 0 0 0
0 0 0 0 0 0 0 0 0 0 0 0 1 2 1 0 0 0 0 0 0 0 0 0 0 0 0 0 0 0 0 0 0 0 0 0 0 0 0 0 0 0 0
0 0 1 0 0 0 0 0 0 0 0 0 0 1 1 0 0 0 0 0 0 0 0 0 0 0 0 0 0 0 0 0 0 0 0 0 0 0 0 0 0 0 0
0 0 1 1 0 0 0 0 0 0 0 0 0 0 0 0 0 0 0 0 0 0 0 0 0 0 0 0 0 0 0 0 0 0 0 0 0 0 0 0 0 0 0
0 1 1 2 1 0 0 0 0 0 0 0 0 0 0 0 0 0 0 0 0 0 0 0 0 0 0 0 0 0 0 0 0 0 0 0 0 0 0 0 0 0 0
1 2 3 3 2 1 0 1 0 0 0 0 0 0 0 0 0 0 0 0 0 0 0 0 0 0 0 0 0 0 0 0 0 0 0 0 0 0 0 0 0 0 0
1 2 3 3 3 1 0 0 0 0 0 0 0 0 0 0 0 0 0 0 0 0 0 0 0 0 0 0 0 0 0 0 0 0 0 0 0 0 0 0 0 0 0
0 1 3 3 3 2 1 0 0 0 0 0 0 0 0 0 0 0 0 0 0 0 0 0 0 0 0 0 0 0 0 0 0 0 0 0 0 0 0 0 0 0 0
Wind_Speed
3 5 6 4 4 4 5 6 6 6 6 6 7 8 7 8 8 8 8 8 9 9 9 9 9 9 9 9 8 8 8 7 7 7 7 7 7 6 6 5 3 5 8
4 6 7 5 5 5 5 5 6 6 6 6 7 7 8 8 8 8 8 9 9 9 9 9 9 9 9 9 8 8 8 8 7 6 5 6 7 6 6 5 4 6 6
5 6 7 6 5 5 5 5 5 6 6 6 6 7 7 7 8 8 9 9 9 8 8 8 9 8 8 8 8 8 8 7 6 4 1 3 7 6 6 6 5 6 6
5 5 6 6 6 5 5 5 5 5 6 6 6 7 7 7 8 8 8 8 8 8 9 8 8 8 8 8 8 8 8 7 5 1 1 4 5 7 5 5 5 5 6
6 5 7 5 5 5 6 6 6 6 6 6 6 7 7 7 8 9 9 8 8 8 8 8 8 9 8 8 8 7 7 6 2 1 4 4 5 6 5 5 4 5 5
6 6 8 5 5 5 5 5 6 6 6 7 7 7 7 7 8 9 8 8 8 8 8 8 8 9 9 8 7 7 6 3 0 4 4 3 4 6 5 4 5 5 5
6 6 7 6 5 5 4 5 5 6 6 7 6 6 7 7 8 8 7 7 7 8 8 8 8 8 8 8 7 7 5 3 3 4 4 4 5 6 4 4 5 5 5
6 5 6 7 4 4 4 4 5 6 6 6 6 6 7 7 7 7 7 7 7 8 8 8 7 8 8 8 8 7 6 4 4 4 5 5 7 6 5 5 5 5 5
5 4 4 5 6 5 5 5 5 5 5 5 6 6 7 7 7 7 7 7 7 7 7 8 7 7 8 8 8 8 7 5 3 3 4 5 6 6 6 6 6 6 6
5 4 4 3 3 4 6 6 5 5 6 6 6 6 6 6 7 6 6 7 7 8 8 8 7 7 7 8 7 6 3 1 4 5 4 6 6 6 6 6 7 6 6
4 3 3 3 3 3 3 5 5 6 6 5 6 6 4 3 5 5 9 8 7 7 8 8 7 6 5 7 6 3 1 3 5 4 4 7 5 5 5 6 7 7 7
4 3 2 2 2 2 2 3 2 3 3 2 3 4 3 3 4 4 8 7 7 7 7 7 5 3 1 3 5 1 2 4 3 4 5 7 5 5 6 6 6 6 6
3 3 2 1 1 2 2 2 2 2 2 2 3 3 3 3 3 3 3 5 4 4 3 4 2 2 3 3 3 3 4 4 3 3 6 8 6 6 6 6 6 6 5
3 3 3 2 2 2 2 2 2 2 2 2 2 3 2 2 2 3 2 2 2 2 3 2 2 3 3 4 4 4 4 3 3 3 6 9 7 6 6 6 6 6 5
3 3 3 2 2 2 2 1 2 2 2 3 2 2 3 2 2 2 2 2 3 2 2 2 2 4 4 4 4 4 5 5 4 4 4 8 8 8 7 7 7 6 6
3 3 3 3 2 2 2 2 2 2 2 2 2 2 3 2 2 2 2 3 3 2 3 2 3 3 3 3 4 4 4 4 4 4 4 6 9 9 9 8 7 7 7
3 3 4 3 2 2 2 2 2 2 2 2 2 2 2 3 2 2 2 2 2 2 3 3 3 3 3 3 3 4 4 4 4 4 4 3 5 8 10 9 8 8 8
2 3 3 2 3 3 2 2 2 2 2 2 1 1 2 2 3 3 2 2 2 2 2 2 2 2 3 3 3 3 3 3 4 4 4 4 4 4 7 9 9 9 8
2 2 3 3 2 3 3 2 2 2 2 1 1 1 1 2 2 2 2 2 2 1 1 2 2 2 3 3 3 3 3 3 3 3 4 4 4 4 4 6 7 7 8
2 2 3 3 2 3 2 2 2 2 2 1 1 1 1 1 1 2 2 2 2 1 1 1 2 2 2 2 3 3 3 3 3 3 3 3 4 4 4 3 3 4 7
3 2 3 3 3 2 2 1 1 1 1 1 1 1 1 1 1 2 1 2 1 1 1 1 1 2 2 1 2 2 3 3 3 3 2 2 3 4 3 3 3 2 3
3 3 3 2 2 2 2 1 1 1 1 1 1 0 0 1 1 1 1 1 2 1 1 2 1 0 1 0 0 0 1 2 2 2 2 1 2 3 3 3 3 3 2
2 3 2 2 2 2 3 2 2 2 1 1 2 1 0 0 1 1 1 1 1 1 2 2 1 1 0 0 1 2 1 1 1 2 2 1 2 2 2 2 3 3 3
2 2 3 3 2 2 3 3 3 2 1 1 1 1 1 1 1 1 1 1 1 1 2 2 1 1 1 1 0 1 2 1 1 1 1 1 2 2 2 2 2 3 3
2 2 2 2 2 2 2 3 3 2 1 1 1 2 1 1 1 1 1 2 2 2 2 1 1 2 1 1 1 1 1 1 2 1 0 0 1 1 1 2 1 2 2
2 2 2 2 2 2 3 3 3 3 3 3 2 2 2 1 1 2 1 2 2 2 2 2 2 2 2 2 2 1 1 1 1 1 1 1 0 1 1 1 1 1 2
Wind_Direction
103 99 98 98 88 84 92 96 91 94 91 85 86 87 88 86 86 83 82 81 80 78 78 77 77 78 81 83 82 82 83 82 82 85 87 87 85 82 86 95 124 110 96
107 104 104 100 90 85 92 93 89 88 88 87 84 85 85 83 86 84 82 82 81 79 78 77 75 74 75 77 77 76 78 77 77 81 95 108 96 86 83 82 54 81 98
108 108 115 104 94 84 85 89 88 88 86 91 88 87 86 85 87 85 84 84 82 81 80 76 73 71 72 75 74 73 74 76 73 74 142 110 105 92 84 85 87 95 97
107 105 97 97 94 86 86 87 88 91 90 92 93 89 88 88 90 85 83 83 81 79 79 76 73 71 71 72 72 70 69 69 62 342 100 75 86 90 85 87 92 97 100
106 104 98 98 96 88 88 88 88 90 96 93 91 90 88 88 91 86 80 79 76 75 76 75 73 71 71 72 72 72 70 66 56 22 62 68 73 79 81 86 92 95 102
109 105 101 101 98 93 89 90 86 87 94 90 85 92 90 88 88 87 84 82 77 74 74 76 76 71 69 69 70 70 69 62 79 65 60 63 76 79 74 78 91 98 103
107 104 105 101 100 96 93 91 89 87 91 89 85 91 94 92 92 91 89 84 78 76 76 76 75 73 69 66 65 65 63 39 52 68 60 58 67 73 72 80 88 95 95
106 111 113 114 97 89 85 87 88 90 91 95 93 89 91 91 91 89 88 87 84 80 79 77 75 72 69 65 63 60 51 1 72 64 61 60 61 64 73 80 89 94 92
104 104 105 116 123 117 91 83 84 88 84 91 97 94 93 89 88 87 86 83 83 80 79 78 79 77 72 67 63 61 52 17 36 55 57 58 64 67 69 73 83 94 91
107 101 96 97 94 106 115 104 94 88 87 89 92 94 104 116 112 105 105 86 80 79 78 76 75 76 75 71 66 62 43 309 46 54 49 64 64 68 71 75 75 82 83
110 102 93 84 82 82 87 110 122 116 106 116 117 124 154 117 105 111 81 82 81 83 81 77 73 75 88 94 75 55 335 46 55 46 46 55 60 68 75 82 80 79 81
125 114 104 97 88 86 84 102 107 111 116 109 94 103 94 85 76 79 100 93 91 96 98 86 82 110 191 93 106 145 53 51 46 52 56 51 50 64 77 85 86 86 83
121 111 106 106 96 88 94 84 84 90 93 90 86 90 86 93 108 99 108 122 119 124 101 109 127 64 58 59 45 48 41 36 40 44 54 51 53 67 76 82 85 86 86
115 106 100 99 103 98 94 96 106 104 96 88 82 81 87 83 77 79 77 76 81 80 66 57 54 62 55 57 57 53 54 44 43 51 61 54 52 63 74 76 79 78 78
125 112 104 108 109 109 98 104 113 102 95 98 83 78 87 89 84 84 81 76 66 66 75 60 59 62 55 47 42 43 53 53 53 57 72 65 57 60 67 73 75 73 74
135 128 125 116 113 121 126 135 109 103 109 80 75 84 92 92 86 78 73 69 62 57 56 56 66 65 57 52 47 46 44 50 53 59 60 76 69 58 56 62 70 69 68
141 135 126 125 123 117 114 112 110 110 103 89 83 81 94 91 85 80 75 78 75 71 72 66 70 64 65 63 58 51 51 42 46 58 58 59 76 74 60 53 57 63 63
150 142 128 137 138 119 112 122 114 108 96 89 89 75 86 91 89 86 88 85 80 75 81 85 71 73 71 63 60 57 60 58 53 53 60 61 61 66 74 59 52 54 55
162 153 148 148 143 127 117 118 107 109 111 101 93 77 77 81 92 100 94 101 102 94 85 84 72 64 71 68 69 66 61 58 57 58 63 58 61 60 64 76 65 53 48
164 170 154 151 151 135 134 134 121 112 113 102 100 91 80 92 101 103 120 120 107 100 89 90 92 88 83 77 73 71 67 67 61 53 52 56 49 49 46 49 69 80 61
160 170 151 159 155 148 152 165 146 138 129 104 76 79 112 129 127 118 133 121 108 97 104 94 95 115 109 94 100 97 103 81 66 68 51 50 57 50 44 45 42 40 79
164 172 164 157 154 159 160 171 154 135 136 94 88 68 84 141 133 136 136 132 128 129 137 124 127 119 116 122 22 186 142 134 95 68 61 55 49 50 39 37 38 38 30
168 175 169 163 163 173 164 159 137 134 166 166 165 148 50 183 162 157 152 148 148 163 151 164 177 179 185 225 336 323 306 56 86 116 70 64 52 41 34 25 21 23 25
163 179 179 171 175 171 178 187 184 197 205 194 190 161 173 205 201 180 177 184 174 172 168 190 192 212 230 226 219 305 317 23 272 129 136 89 54 33 33 22 15 18 20
149 169 191 186 186 181 199 197 213 212 206 180 183 177 193 185 206 197 212 215 204 192 195 203 214 243 246 274 262 256 279 229 252 270 233 138 75 44 36 14 15 17 19
140 155 180 199 199 206 211 207 207 204 202 193 189 192 197 183 199 194 218 234 231 213 204 213 228 236 258 273 266 239 250 262 258 260 258 238 341 29 20 29 29 38 38